Temp
7 7 7 7 7 7 7 7 7 7 7 7 7 7 7 8 7 8 8 7 8 8 8 8 8 9 8 8 8 8 9 9 10 8 9 18 22 20 20 20 21 20 18 19 18 18 18 17 17 18 18 19 19 20 20 20 21 21 20 20 20 20 21 22 23 24 24 25 25 25 25 25 26 27 26 25 23 22 22 21 21 21 22 22 21 21 20 20
7 7 7 7 7 7 7 7 7 7 7 7 7 7 7 7 8 8 8 8 8 8 8 8 8 8 8 9 9 8 10 10 9 9 14 21 22 20 20 19 20 19 19 18 18 18 18 18 17 17 19 19 19 20 20 21 21 21 20 20 20 21 21 23 24 24 24 25 25 25 25 25 26 26 26 25 23 23 23 21 20 20 21 21 20 20 20 19
7 7 7 7 7 7 7 7 7 7 7 7 7 7 7 7 8 8 8 8 8 8 8 8 8 8 8 9 8 9 10 9 12 16 20 22 22 21 20 19 19 19 19 19 19 18 19 19 18 18 19 20 20 20 21 21 21 21 21 20 21 21 22 23 24 24 25 25 25 25 25 25 26 26 26 24 23 23 23 21 21 20 20 20 20 20 19 19
7 7 7 7 7 7 7 7 7 7 7 7 7 7 7 7 8 8 8 7 8 8 8 8 8 8 8 8 9 10 10 12 18 21 22 22 22 22 20 19 19 19 19 19 19 19 19 19 18 19 20 19 20 20 21 21 22 21 21 21 21 22 22 23 24 24 25 25 24 25 25 25 27 26 25 24 24 24 23 22 22 21 20 20 19 19 19 19
7 6 7 7 7 7 7 7 7 7 7 7 7 7 7 7 7 7 7 7 7 8 7 7 7 8 8 9 10 11 12 17 22 21 22 22 22 22 21 20 19 19 19 18 19 19 19 19 18 19 19 20 20 20 21 21 22 21 21 22 22 22 23 24 24 25 25 25 24 25 25 26 27 26 24 25 26 26 25 23 22 21 20 20 19 19 19 19
6 6 6 7 7 7 7 6 6 7 7 7 7 7 7 7 7 7 7 7 7 7 7 7 7 7 8 10 11 11 15 20 21 21 23 22 22 22 21 20 19 19 18 18 19 18 19 19 19 19 19 20 20 20 21 21 22 22 22 23 22 22 23 23 24 25 25 24 25 25 25 26 26 26 25 25 28 27 25 24 22 20 20 21 20 20 19 19
6 6 6 6 6 7 6 6 6 6 6 7 7 7 7 7 7 7 7 7 7 7 7 7 7 7 9 11 11 12 15 18 20 22 22 21 22 22 21 20 19 19 18 18 18 18 19 19 19 19 19 20 20 20 21 21 22 22 22 23 23 23 23 24 24 24 24 24 25 25 25 25 25 27 25 25 28 26 23 23 21 21 21 21 20 20 20 20
6 6 6 6 6 6 6 6 6 6 6 7 7 7 7 7 7 7 7 7 7 7 7 7 7 7 9 10 12 14 15 18 22 22 21 22 22 22 21 19 18 18 18 18 18 18 19 19 19 20 20 20 20 20 21 21 21 21 22 22 23 23 24 24 24 24 24 24 24 24 24 25 25 26 26 26 26 23 22 22 21 21 20 20 20 20 20 20
6 6 6 6 6 6 6 6 6 6 6 6 7 7 7 7 7 7 7 7 7 7 7 7 7 8 9 9 12 16 19 20 21 21 21 21 21 21 21 19 18 18 18 18 18 18 19 19 20 20 20 20 21 21 21 21 21 22 22 23 23 23 24 24 24 24 25 24 24 25 25 26 26 25 26 25 23 22 21 21 20 20 20 20 20 20 20 20
7 7 6 6 6 6 6 6 6 6 6 6 7 7 7 7 7 7 7 7 7 7 7 7 7 8 9 10 13 17 20 21 20 21 21 21 21 21 20 20 19 18 18 18 18 19 19 19 20 21 21 21 21 21 21 21 22 23 23 23 23 23 24 24 24 25 25 24 25 25 26 27 26 26 27 25 22 21 21 20 20 20 20 20 20 20 20 20
7 7 7 6 6 6 6 6 6 6 7 7 7 7 7 7 8 9 8 8 8 7 7 7 7 8 8 10 14 17 20 20 20 20 20 20 20 20 20 20 19 18 18 17 17 19 20 19 20 21 21 21 22 22 22 22 23 24 23 23 23 23 23 23 24 24 24 25 26 26 26 26 26 26 28 25 22 22 21 20 20 20 20 20 20 20 20 19
6 7 7 6 6 6 6 7 6 6 7 7 8 8 7 7 9 10 9 9 9 7 7 7 7 8 8 10 13 17 20 20 20 20 19 20 19 20 20 20 20 19 19 18 17 19 20 20 21 21 21 21 21 21 23 23 23 23 23 23 23 23 23 24 24 25 25 25 27 26 25 25 25 27 28 24 22 22 20 20 20 20 20 20 20 20 19 19
6 6 6 6 6 6 6 6 6 7 7 9 10 10 9 9 10 10 10 10 9 7 7 7 7 7 9 12 16 19 21 20 20 20 19 20 19 19 19 19 20 19 20 19 19 20 20 20 21 21 21 21 21 21 23 22 23 23 23 22 22 22 23 24 24 25 25 25 26 25 23 24 26 28 27 23 22 22 20 20 20 20 20 20 20 19 19 18
7 7 7 6 6 6 6 6 6 7 7 9 11 11 11 11 11 11 11 10 9 7 7 7 7 8 9 14 18 20 20 19 19 19 19 20 19 20 19 19 19 20 20 19 20 21 20 20 21 21 21 21 21 21 22 22 22 23 23 22 21 21 22 24 24 24 25 25 26 25 22 23 27 28 26 23 22 22 21 20 20 20 20 20 20 19 18 17
8 9 8 7 6 6 6 6 6 7 7 8 9 11 11 12 12 12 11 10 9 8 8 7 7 8 9 13 17 19 19 18 18 19 20 20 19 20 20 20 19 20 20 19 20 21 20 21 20 20 21 21 21 21 21 21 22 22 22 21 21 20 21 23 24 24 25 26 25 25 23 23 26 27 25 23 22 22 21 21 21 21 20 20 20 18 17 17
10 9 9 7 6 6 6 6 6 6 6 7 9 12 12 13 13 12 11 10 8 8 8 8 8 8 11 15 18 19 19 18 19 21 21 20 20 21 21 20 19 20 19 19 20 20 21 21 21 21 21 21 21 21 20 21 21 21 20 20 20 20 21 22 24 24 25 25 25 24 24 24 26 27 25 22 22 22 21 21 20 21 20 20 19 17 17 17
10 10 8 7 6 6 6 6 6 6 6 7 11 13 13 13 13 11 9 9 9 8 8 9 8 8 13 17 19 20 20 20 21 21 21 21 21 22 21 20 20 20 19 19 20 20 21 21 21 21 21 21 21 21 20 20 20 20 19 20 20 20 20 21 23 24 24 24 25 24 24 24 26 27 24 22 22 22 21 21 20 20 20 19 18 17 17 17
10 10 9 8 8 7 7 7 6 6 7 8 11 13 12 11 11 10 9 8 8 8 9 9 9 12 16 18 18 20 20 21 21 21 21 21 21 22 21 20 20 20 19 20 20 20 20 20 20 21 20 20 20 20 20 19 20 19 20 20 20 20 21 21 22 23 24 24 24 24 24 24 25 25 24 22 23 22 22 21 20 20 20 18 17 17 17 17
10 10 10 10 10 9 9 8 7 7 8 10 12 11 11 10 10 10 8 8 9 12 14 12 11 17 19 18 18 19 20 21 21 21 22 21 21 20 20 20 21 21 20 20 20 20 20 20 20 20 20 19 20 20 20 20 20 20 20 20 20 20 20 20 21 23 24 23 23 24 23 24 25 25 24 23 23 22 22 21 20 20 19 18 17 17 18 17
11 11 11 11 11 11 10 9 8 8 8 9 11 11 12 12 12 12 10 9 10 13 17 14 13 17 18 18 19 19 20 21 21 21 21 21 20 19 19 20 21 21 20 20 20 20 20 20 19 19 19 19 20 20 20 20 20 20 20 19 19 19 19 20 21 22 24 23 23 24 24 24 24 24 24 23 23 23 22 21 19 19 18 17 17 17 17 17
11 11 11 11 11 11 10 9 9 9 8 8 9 11 13 14 13 14 12 12 12 12 15 15 14 15 16 18 19 19 20 20 20 21 21 21 21 19 20 20 20 20 20 20 20 20 20 19 18 18 19 20 21 20 20 19 19 19 20 20 19 19 19 20 21 22 23 22 23 24 23 23 24 24 24 23 23 23 22 20 19 19 18 17 18 17 17 17
10 11 11 11 11 11 11 10 9 9 8 9 9 10 12 13 14 14 13 13 14 13 13 14 14 15 16 17 18 18 18 18 19 20 21 21 21 20 20 20 19 19 19 20 20 19 19 18 18 19 20 20 20 19 19 19 19 19 19 19 19 19 20 21 21 22 23 22 23 24 23 23 24 23 23 23 23 23 22 21 20 18 18 18 18 18 17 16
10 10 11 11 12 12 11 10 9 9 9 9 8 9 12 14 14 14 13 13 14 15 15 14 14 15 16 16 17 18 17 17 18 19 21 21 21 21 20 20 19 19 19 19 19 18 18 18 19 19 19 20 19 19 19 18 18 18 18 18 18 19 20 20 21 22 23 22 22 23 22 23 23 23 23 22 22 23 22 21 20 18 18 18 19 18 17 16
10 10 10 11 11 12 11 10 10 10 10 9 9 11 14 14 13 13 13 14 15 16 16 16 15 15 16 17 18 18 17 18 18 19 21 21 20 20 20 20 19 19 19 19 19 18 18 19 20 19 19 19 19 19 19 18 18 18 18 18 18 19 19 20 21 21 22 22 22 22 21 22 23 24 24 22 22 23 22 21 20 18 17 18 19 18 17 16
9 9 10 10 11 11 11 10 9 10 10 9 11 14 14 14 13 13 13 14 15 16 17 17 17 17 18 18 18 18 18 18 19 20 21 21 21 20 20 20 19 19 19 19 19 18 19 20 20 20 19 19 19 19 18 18 18 18 18 19 19 19 20 20 20 20 21 21 22 22 20 21 23 23 24 22 22 23 21 20 19 17 17 18 18 18 16 16
9 9 8 9 9 11 12 11 10 10 10 11 13 14 14 14 14 14 14 14 15 17 18 18 18 18 19 18 18 18 18 18 19 20 21 22 22 21 21 20 20 20 19 19 19 18 19 20 20 20 20 19 19 19 19 18 18 18 19 20 19 20 20 20 20 20 20 20 21 22 21 21 22 23 23 20 21 21 19 20 19 17 17 17 17 17 16 16
9 7 7 7 8 8 9 10 9 10 12 13 14 14 15 15 15 15 15 14 15 18 19 18 18 20 20 19 18 19 20 20 20 20 21 22 22 22 21 20 20 20 20 20 19 19 20 20 20 20 20 19 18 18 19 19 18 19 20 21 20 20 20 20 20 20 21 21 21 21 21 21 21 23 22 19 19 19 19 19 18 17 17 17 17 16 16 16
8 7 6 6 7 7 7 7 6 8 13 14 13 14 16 15 15 15 15 14 17 20 20 19 20 21 20 19 19 20 21 21 20 20 21 22 22 22 21 20 20 20 21 20 19 19 21 20 20 20 19 19 19 20 19 19 19 21 21 21 21 21 20 20 20 20 20 21 21 20 21 21 20 22 22 20 19 18 18 18 18 18 17 17 17 16 16 16
8 7 6 6 8 8 7 6 6 10 14 14 13 15 16 15 16 16 14 15 18 21 21 21 21 21 20 19 19 20 21 22 21 21 21 22 22 22 21 20 21 20 20 20 19 20 21 21 21 20 19 19 20 20 20 19 20 22 21 21 21 21 21 20 20 20 20 20 20 20 21 21 21 22 22 20 19 18 18 18 18 18 17 17 17 16 16 16
8 7 7 6 7 8 7 7 9 13 13 13 14 15 16 16 16 15 14 15 18 20 21 21 20 20 20 19 19 20 20 21 22 21 21 21 22 22 21 21 21 20 20 20 20 20 20 21 21 21 21 21 21 21 20 20 21 22 21 21 21 21 21 21 20 20 21 20 20 21 21 21 20 21 21 19 19 18 18 17 17 18 17 17 17 16 16 16
8 8 8 6 6 7 7 9 12 13 13 13 14 15 16 16 14 14 14 16 18 19 19 19 19 19 19 19 19 20 20 21 22 21 21 21 21 21 21 21 21 20 19 20 20 20 20 21 21 22 23 22 22 22 21 20 21 21 21 21 21 20 21 20 20 20 20 20 21 21 21 20 21 21 19 17 17 17 17 18 17 18 18 17 17 16 16 16
9 10 9 8 7 7 8 11 13 13 13 13 14 15 16 15 14 14 15 17 17 17 18 18 18 18 18 18 19 20 21 21 21 21 20 20 20 20 20 20 20 19 19 19 19 19 20 20 21 22 23 23 22 22 21 21 20 20 21 21 20 20 20 20 20 20 19 20 21 21 20 20 20 20 17 16 16 16 17 18 18 18 18 17 17 16 16 16
10 11 11 11 10 9 11 13 12 12 13 14 14 15 15 14 14 14 15 16 17 17 18 18 18 17 18 19 19 20 21 20 21 21 21 20 19 19 20 20 20 20 19 18 18 19 20 20 21 22 23 23 23 22 21 21 20 20 21 21 20 20 19 19 19 19 19 20 20 19 20 20 20 19 16 16 16 16 17 18 18 18 17 17 17 16 17 16
12 12 12 13 12 13 13 12 12 12 13 13 14 14 14 14 14 14 15 15 16 17 17 17 17 17 19 19 19 20 20 20 20 20 20 20 19 19 19 19 19 20 20 18 18 19 19 20 21 22 22 23 23 22 22 23 21 21 21 21 21 20 20 20 20 20 20 21 20 19 20 19 19 19 17 17 17 16 17 17 17 17 17 17 16 16 16 16
12 12 13 13 14 14 14 12 12 12 12 13 14 14 14 14 14 14 14 15 16 16 16 16 17 18 19 19 19 20 20 20 19 20 20 20 19 19 19 19 19 20 20 19 18 19 19 20 22 22 22 23 23 23 23 23 22 20 20 21 21 21 21 20 19 19 19 20 20 19 18 18 18 18 17 17 17 16 16 16 16 16 16 16 16 16 16 16
13 13 13 14 15 15 14 13 12 12 12 14 14 13 13 14 14 14 15 15 15 15 15 16 17 18 18 18 19 20 21 20 19 19 19 19 19 19 19 20 19 19 20 19 18 18 19 20 21 22 22 23 23 23 23 23 22 20 20 21 21 21 22 21 19 18 18 20 19 17 17 18 18 18 18 17 17 16 16 16 15 15 15 15 15 15 16 16
14 13 12 14 15 15 14 14 13 12 13 14 14 13 13 13 14 14 15 16 15 15 15 15 16 17 17 17 18 19 20 20 19 19 19 18 18 18 18 19 19 19 20 20 19 19 18 19 21 21 22 23 23 23 23 23 23 21 21 22 21 20 21 21 20 19 18 20 19 16 17 18 18 18 18 17 17 16 15 16 15 15 15 15 15 15 15 15
12 11 12 14 15 15 14 14 13 12 13 14 13 12 12 13 14 15 15 15 15 15 15 14 16 17 17 17 18 19 19 19 19 19 18 18 18 18 18 18 19 19 19 20 20 19 18 19 21 21 21 22 22 22 22 23 22 22 22 22 21 20 21 20 20 20 19 19 18 17 16 17 17 18 17 17 16 15 15 15 15 15 15 15 15 15 15 15
10 12 14 14 15 15 14 14 13 13 14 13 12 12 13 13 14 15 15 15 15 15 15 15 16 17 17 17 17 18 19 18 18 18 18 17 18 18 18 18 19 19 19 20 20 19 18 19 20 20 20 21 22 22 21 21 22 22 22 22 21 21 21 20 20 20 20 19 17 17 17 17 17 16 16 16 16 15 15 15 15 15 15 15 15 15 15 16
10 13 15 15 15 15 14 14 13 13 13 13 12 13 13 13 14 15 15 15 15 16 16 16 16 16 17 17 17 17 18 18 17 17 17 17 17 18 17 17 19 19 19 19 19 18 18 18 19 20 20 20 21 21 20 21 21 22 22 21 21 20 20 20 19 19 20 20 18 17 17 17 17 15 15 15 15 14 15 15 15 15 15 15 15 15 15 15
10 14 14 14 15 15 14 14 13 12 12 12 12 12 13 14 15 15 16 16 16 17 17 16 16 16 17 17 17 17 17 17 17 17 17 16 17 18 18 17 18 19 18 18 19 19 18 18 18 18 19 20 21 21 20 20 20 20 20 19 18 19 20 20 20 18 18 19 18 18 18 17 15 14 14 15 14 14 14 14 14 14 14 14 14 15 15 15
11 14 14 14 15 14 13 13 12 11 12 12 13 13 14 14 15 15 16 16 16 17 17 16 16 16 16 16 17 17 16 17 17 17 17 17 17 18 18 18 18 18 18 18 18 18 18 17 18 18 18 19 19 20 20 19 19 19 18 16 16 18 19 21 21 19 18 18 17 18 19 17 14 14 15 14 14 14 14 14 14 14 14 14 14 14 14 14
13 14 14 13 14 14 14 13 12 12 13 13 13 14 14 14 15 15 15 15 16 16 16 16 16 16 16 16 17 16 16 17 17 17 16 17 17 17 18 18 17 18 18 18 17 18 17 17 17 18 18 18 19 20 20 19 19 19 18 16 16 17 17 18 20 19 19 19 17 18 19 16 14 14 14 14 14 14 14 14 14 13 13 13 13 13 13 14
12 12 13 14 14 15 14 13 13 13 13 13 13 13 14 14 14 14 14 14 15 15 15 15 15 15 15 16 16 16 16 16 17 16 16 16 17 17 18 18 18 18 18 18 18 18 17 16 17 18 18 18 19 19 20 20 19 19 17 16 15 15 15 17 18 19 19 18 18 20 18 15 14 14 14 14 14 14 13 13 12 11 11 11 12 12 12 12
11 12 13 13 14 14 14 13 13 13 13 12 12 13 13 14 14 14 14 14 14 14 15 15 15 15 14 15 15 15 16 16 16 16 16 16 17 17 17 17 18 18 18 18 17 17 17 16 17 17 17 17 18 17 18 18 17 17 17 15 15 15 15 17 18 20 20 18 18 19 17 14 14 14 14 14 13 13 12 11 11 10 10 10 10 10 10 10
13 13 13 13 13 13 14 13 13 13 13 12 12 12 12 13 14 14 14 14 14 14 14 14 14 14 14 14 15 15 15 16 16 15 15 15 16 16 16 16 17 17 17 17 16 17 17 15 15 17 17 16 16 16 16 16 16 17 16 15 15 14 14 16 18 20 19 18 17 16 15 15 14 14 14 14 12 12 11 10 10 9 9 9 9 9 9 9
13 13 13 14 13 13 14 13 13 13 13 12 13 12 12 12 12 13 14 14 14 14 14 14 13 13 13 14 14 15 14 15 15 15 14 14 15 16 16 16 16 17 17 16 16 16 17 15 14 15 15 15 15 15 15 15 15 14 14 15 14 14 14 17 18 16 16 18 18 15 14 15 14 13 14 13 12 11 11 10 9 9 9 9 8 9 9 9
12 13 12 13 13 13 13 13 13 13 13 13 12 12 12 12 12 12 13 13 14 13 14 13 13 12 13 13 13 14 14 14 15 14 14 14 14 15 15 15 15 16 16 16 15 15 16 14 13 13 14 14 14 15 15 14 13 12 12 13 13 14 15 16 15 13 14 18 18 15 14 15 14 13 14 13 12 11 10 10 9 9 8 8 8 8 8 8
12 13 12 11 13 13 13 12 13 13 13 13 13 12 12 12 12 12 12 13 13 13 13 13 13 12 12 13 13 13 13 14 14 13 13 13 13 13 14 14 14 15 16 16 14 14 14 14 12 12 14 13 13 14 14 13 13 13 12 11 12 13 14 14 13 13 14 16 15 14 14 14 13 13 12 12 11 10 10 9 9 9 9 8 8 8 8 8
12 12 12 12 12 12 12 12 13 13 13 12 12 13 12 12 12 12 12 12 12 13 13 12 12 12 12 12 13 13 13 13 13 13 13 13 13 13 13 14 15 15 16 15 14 14 14 14 12 12 14 13 13 13 14 13 14 14 13 12 11 13 14 14 14 13 14 14 14 14 13 12 12 11 11 10 10 10 9 9 9 9 8 8 8 8 8 8
10 11 11 12 12 11 12 12 12 12 12 11 12 12 12 12 12 11 12 13 13 12 12 12 12 12 12 12 13 13 13 13 13 13 13 13 13 14 14 14 14 15 15 15 14 14 15 13 12 13 14 13 12 12 13 13 14 14 13 11 11 11 13 13 13 13 14 14 14 14 13 11 10 10 10 10 9 9 9 8 8 8 8 8 7 7 7 7
10 10 10 12 12 10 10 11 11 11 12 11 11 12 12 13 12 11 12 13 13 13 12 12 12 12 13 13 13 14 14 14 14 14 13 13 13 14 14 13 14 14 14 14 14 14 14 13 13 13 14 13 11 11 12 14 14 14 12 10 9 10 11 12 12 12 13 14 14 14 12 11 10 10 10 9 9 8 8 8 8 8 7 7 7 6 6 6
Height
804 803 802 801 799 798 797 795 794 793 792 791 790 789 788 787 786 785 784 783 783 782 781 781 780 779 778 777 776 774 772 769 766 767 765 754 750 752 753 753 753 755 757 758 760 761 762 764 764 765 767 767 769 769 769 770 770 775 782 790 790 786 780 772 767 765 761 757 752 750 749 752 748 742 738 736 740 742 744 745 743 741 739 741 744 746 751 755
804 803 801 800 799 798 797 795 794 793 792 791 790 789 788 787 786 785 784 783 783 782 781 780 779 778 777 776 775 773 770 768 765 763 757 749 749 750 751 753 753 754 756 757 759 760 762 763 764 765 766 768 769 768 769 768 769 775 782 788 785 779 771 764 762 759 757 756 753 751 750 751 748 745 740 743 749 745 747 751 749 748 746 746 747 750 754 755
804 803 801 800 799 797 796 795 794 793 792 790 789 789 788 787 786 786 785 784 783 782 781 780 779 777 776 775 774 773 770 767 763 756 750 748 749 748 749 752 753 754 756 757 758 760 761 762 763 765 766 768 769 768 769 768 769 772 778 785 778 770 765 760 760 758 755 754 753 752 750 750 746 742 742 746 751 748 749 751 751 753 750 749 750 751 755 757
804 803 801 800 799 797 796 795 794 793 792 791 789 788 788 787 786 786 784 783 782 782 780 779 778 777 776 774 773 772 770 767 758 750 749 749 748 747 748 751 752 754 756 756 758 760 761 762 763 764 767 770 769 769 769 767 768 770 774 777 769 764 764 758 757 756 752 751 752 752 751 750 743 740 743 746 751 752 749 744 742 747 748 748 751 751 754 756
804 802 801 800 798 797 796 795 794 793 792 791 790 788 787 786 786 785 784 783 782 781 779 778 777 776 775 774 773 772 771 767 754 748 749 748 748 748 748 750 753 754 755 757 758 760 761 762 763 765 768 770 770 769 769 765 764 769 769 766 763 764 762 755 754 754 751 749 750 752 751 747 741 741 744 744 748 747 741 736 736 739 741 743 747 751 754 755
803 802 801 799 798 797 796 795 794 793 792 791 790 788 787 786 785 785 784 783 781 780 779 778 776 775 774 773 773 772 772 766 752 748 749 748 748 748 748 750 752 754 755 757 757 759 761 762 764 767 769 770 771 770 768 764 763 770 767 761 761 762 760 755 752 751 750 751 750 749 747 743 744 745 743 743 741 736 732 733 737 740 741 741 744 749 751 753
802 801 800 799 798 797 796 795 794 793 792 791 790 788 787 786 785 784 783 782 781 780 778 777 776 775 774 774 773 772 773 764 749 748 749 747 749 747 749 751 752 754 755 756 757 759 760 762 765 766 769 770 770 769 766 763 763 769 767 759 759 759 757 754 751 750 749 751 748 745 745 745 747 746 744 742 735 732 733 733 738 743 745 746 747 748 750 752
801 800 799 798 797 796 795 794 793 792 791 790 789 788 787 785 784 783 782 782 780 780 779 777 776 775 774 774 772 772 770 758 747 748 748 747 749 748 750 751 752 754 754 756 756 758 760 763 764 764 769 770 768 767 765 765 765 766 765 759 757 756 753 750 751 750 749 749 746 745 746 744 743 743 743 741 736 734 734 734 739 744 747 749 749 750 752 754
801 799 799 798 797 796 795 794 793 792 791 790 789 787 785 784 783 782 781 780 780 780 778 777 777 775 775 775 774 770 760 750 747 748 746 747 748 748 750 750 753 753 754 756 756 758 759 761 762 762 766 766 765 765 763 768 768 762 760 758 756 755 751 750 751 749 747 746 745 747 746 739 737 740 742 739 738 737 735 737 742 745 749 750 751 752 753 754
800 799 798 797 796 795 794 793 792 791 790 788 787 786 784 783 782 781 780 780 779 779 778 778 776 776 776 774 775 770 753 747 749 747 746 747 748 749 750 750 752 753 754 756 756 757 756 758 759 758 762 763 763 763 762 766 764 756 757 757 755 755 751 750 749 747 746 745 744 747 745 737 735 740 743 739 738 738 738 742 744 746 749 750 751 751 751 752
799 798 797 796 795 794 793 792 790 789 788 786 786 784 783 782 781 780 780 779 778 778 777 777 776 776 776 774 775 767 750 747 748 746 748 748 749 750 750 751 751 752 753 755 755 754 754 756 756 758 762 762 761 761 759 758 757 754 755 755 753 753 751 749 749 747 747 745 740 743 743 737 737 741 739 736 737 738 740 745 747 748 750 750 751 751 752 756
798 797 796 795 794 793 792 791 789 788 786 785 784 782 782 781 780 779 778 778 777 777 777 777 777 776 776 776 770 758 748 748 748 747 748 748 749 750 750 751 751 752 752 753 753 752 754 756 756 759 761 760 763 763 757 753 754 753 754 758 755 752 751 748 746 744 745 744 736 740 748 745 742 739 734 734 736 738 742 746 748 750 750 750 751 753 757 760
798 796 795 794 793 792 791 789 788 787 785 784 782 781 780 779 779 778 777 777 776 777 777 776 777 776 777 771 756 747 747 749 748 747 748 748 749 749 749 750 750 752 752 751 751 751 755 756 756 758 758 760 764 760 754 752 754 754 755 758 759 758 754 746 744 742 743 742 734 742 758 753 742 735 732 735 736 740 746 748 749 750 750 752 754 757 760 761
797 796 795 793 792 790 789 788 786 785 783 782 780 779 778 777 777 776 776 776 775 776 776 776 776 777 778 763 746 744 746 746 746 744 745 747 747 747 748 749 750 750 751 752 751 752 754 755 756 757 757 759 759 756 756 757 756 756 758 759 764 768 758 745 744 744 743 740 732 742 759 754 740 733 731 735 736 739 747 749 749 750 750 752 755 759 761 761
797 795 794 792 791 789 788 787 785 784 782 781 779 778 776 776 775 774 774 774 774 775 774 776 776 777 779 762 744 743 744 743 742 740 743 745 745 746 745 747 748 748 750 752 752 753 754 755 758 760 758 756 756 761 764 763 759 760 765 765 767 770 761 748 744 744 744 740 734 744 757 753 741 733 731 735 735 738 744 748 749 749 751 753 756 759 762 762
796 794 793 791 790 788 787 785 784 783 781 779 777 776 774 773 772 772 772 772 774 774 774 776 775 778 777 758 743 742 741 740 739 738 740 742 742 743 744 746 747 748 750 751 751 753 754 755 757 758 757 756 759 764 767 769 766 766 771 772 769 770 766 756 746 741 742 741 739 744 751 750 740 732 732 735 736 738 743 747 748 750 751 753 756 760 762 763
795 793 792 790 789 787 785 783 782 781 779 778 775 773 772 770 769 769 771 772 773 773 775 775 775 778 767 748 742 741 738 738 737 738 738 739 740 741 743 746 746 748 750 751 752 753 754 756 757 757 757 759 761 763 773 779 776 773 775 774 772 770 768 762 752 743 741 744 743 743 747 746 738 731 734 737 736 738 743 746 748 749 750 752 756 759 760 762
794 792 791 789 787 786 784 782 781 779 778 776 774 772 770 769 769 769 770 772 773 774 776 775 777 775 758 744 744 741 737 738 737 738 738 738 740 740 742 744 745 748 751 753 753 754 755 756 757 760 760 761 762 765 776 779 775 776 775 773 773 769 766 765 758 747 742 745 746 747 748 744 737 732 735 737 736 739 741 744 747 748 750 754 757 758 759 761
793 791 789 787 786 784 782 781 779 778 777 774 773 771 770 770 770 770 772 773 773 771 769 769 770 763 749 742 742 740 738 738 737 736 736 737 739 741 742 744 746 749 753 756 756 754 755 757 760 764 764 764 765 765 769 770 768 770 772 774 775 772 768 762 758 750 744 748 748 747 748 742 736 732 732 735 736 738 740 744 748 748 751 755 757 757 758 760
791 790 788 786 784 782 781 780 779 778 776 774 772 770 770 772 771 770 773 772 769 762 757 760 760 754 746 741 739 740 739 737 736 734 734 736 737 742 744 745 747 750 754 757 757 754 755 761 764 764 765 764 763 763 763 765 766 768 770 773 774 775 770 759 756 749 744 751 748 742 744 741 736 731 728 733 736 737 742 747 748 748 752 754 755 757 757 759
790 788 786 785 783 781 780 779 778 777 776 775 773 772 772 774 775 773 771 766 758 755 754 753 753 751 743 739 738 741 742 739 736 733 734 735 736 743 746 746 752 755 755 755 756 754 756 763 763 761 762 760 758 760 762 765 767 768 771 772 773 774 767 756 755 750 743 751 749 741 745 742 734 729 725 730 735 736 739 745 746 747 751 752 753 756 758 758
789 787 785 783 781 780 779 778 777 776 776 775 774 774 774 774 775 774 772 766 752 748 750 748 749 747 737 736 738 742 747 746 740 733 732 735 736 742 746 747 754 756 755 756 758 761 763 763 759 757 757 757 759 761 764 767 767 769 772 774 774 770 764 756 751 746 743 750 749 743 747 742 730 727 724 726 730 730 732 734 737 742 748 751 751 753 756 758
788 785 784 782 780 779 778 777 776 775 775 775 775 774 773 772 772 771 772 770 752 740 743 743 745 744 735 734 736 741 748 747 744 736 730 734 737 739 744 748 753 754 755 758 761 767 768 760 754 754 756 757 761 762 765 768 769 771 773 775 774 768 768 764 753 747 745 749 749 746 749 742 730 726 721 721 724 724 727 728 730 736 741 743 744 746 750 753
786 784 783 780 779 778 776 776 774 774 775 774 773 771 770 770 770 769 769 768 754 738 736 734 735 736 730 729 733 738 743 740 740 735 728 732 737 738 742 745 752 755 755 756 759 765 763 752 748 753 756 758 760 761 765 770 771 772 771 772 772 767 768 766 757 753 749 749 747 747 753 743 730 729 721 719 724 722 725 729 734 739 740 741 742 745 748 749
785 783 781 779 778 776 775 774 773 774 773 772 771 769 769 768 768 768 767 768 759 741 732 730 730 729 724 727 731 732 737 735 731 728 725 728 733 737 741 742 748 755 755 755 759 762 757 748 747 752 756 758 761 762 764 768 771 772 766 763 765 763 763 761 759 761 762 760 748 747 762 752 732 730 727 724 725 723 726 731 736 743 744 744 745 747 750 750
784 782 780 779 778 775 773 773 773 774 772 770 770 768 768 767 766 766 768 774 766 742 731 731 730 725 721 727 729 729 738 734 722 722 724 725 727 732 740 742 744 750 752 752 757 757 751 745 746 751 755 758 762 763 760 763 772 772 758 752 756 758 759 758 759 765 768 763 750 746 762 760 740 729 729 732 731 729 732 732 735 742 743 743 744 746 749 751
783 781 780 779 777 775 775 773 774 773 771 769 768 767 766 764 765 764 768 780 767 739 730 732 729 724 721 723 725 729 737 727 717 721 720 723 725 727 739 744 743 745 745 750 759 753 744 745 748 749 753 758 762 761 755 757 768 765 747 745 751 754 756 756 759 764 760 755 752 749 753 760 751 733 730 738 740 739 739 737 737 739 740 741 742 744 747 748
782 780 779 778 777 777 776 775 774 772 770 768 766 766 764 763 764 763 773 783 759 729 727 729 724 720 719 722 722 723 723 718 721 723 716 720 725 726 738 742 741 742 739 747 759 749 740 745 747 748 754 759 756 750 747 753 759 749 736 741 746 747 751 752 757 761 757 755 757 753 751 760 755 735 731 739 744 748 746 741 741 739 738 740 741 744 746 747
780 779 778 777 775 776 775 774 773 770 768 767 765 764 762 763 762 766 782 781 748 726 725 724 723 722 722 726 726 721 717 716 720 720 716 721 723 724 735 736 736 741 738 742 750 744 738 738 739 744 752 752 744 740 742 749 749 736 734 742 742 745 749 751 756 756 757 762 759 751 751 759 755 737 735 743 746 752 751 744 743 740 739 740 741 744 747 748
778 777 777 775 774 774 773 773 770 768 767 765 765 763 761 762 765 776 789 773 745 733 727 725 729 728 728 732 731 726 723 720 716 718 721 723 723 723 729 730 733 740 742 742 743 740 736 734 735 738 741 738 734 734 737 740 737 731 736 742 744 749 749 750 756 753 760 767 756 746 746 755 758 743 741 749 750 751 751 748 746 742 742 742 742 744 746 748
776 775 775 774 773 772 772 771 767 766 767 764 764 762 761 766 774 785 782 759 746 742 734 734 735 731 732 736 734 728 725 723 718 721 726 726 728 731 732 735 737 743 748 746 744 741 737 736 736 731 728 729 731 732 733 733 733 735 740 744 750 756 752 755 760 757 768 770 748 740 746 754 758 747 744 753 753 749 746 744 743 740 740 742 743 745 745 747
774 773 772 771 770 770 770 768 766 766 766 764 764 762 764 773 781 782 769 752 752 751 745 744 740 735 736 734 731 726 724 726 721 723 728 729 734 735 735 739 741 749 756 752 749 746 740 736 734 728 723 724 730 735 734 733 736 742 745 748 758 764 762 765 767 766 772 763 744 743 749 752 754 750 751 753 750 748 743 739 738 737 737 739 742 744 744 745
771 770 768 767 767 767 766 765 766 766 765 764 765 764 769 777 778 774 766 759 757 753 748 747 742 739 736 732 729 723 722 726 723 723 725 729 736 736 734 734 735 743 752 752 753 751 744 737 731 729 725 720 725 736 738 736 739 743 743 746 756 767 773 775 774 775 771 753 745 749 748 749 751 751 754 753 748 745 740 740 741 740 740 740 741 743 744 745
769 767 766 765 764 764 764 765 765 765 765 764 765 768 774 778 775 770 769 765 758 751 749 749 746 739 734 733 730 723 725 729 725 725 727 730 738 740 737 736 734 736 742 750 753 751 752 747 732 727 726 719 720 726 726 727 733 736 734 736 746 754 763 769 766 765 761 750 749 752 751 756 757 752 752 750 746 743 740 741 743 744 747 745 744 744 745 747
767 765 764 763 763 763 763 764 764 765 765 764 767 773 775 774 773 772 770 764 759 756 753 750 747 742 736 733 729 723 725 729 728 728 730 732 737 738 737 735 734 734 739 750 753 748 752 747 728 720 720 717 719 717 714 720 729 735 734 735 741 739 741 756 761 759 758 754 754 759 761 763 758 751 749 747 744 745 745 745 745 747 751 751 750 747 745 747
765 763 762 762 762 763 763 763 764 764 764 765 769 775 775 772 772 772 768 763 762 761 758 753 748 746 744 738 733 727 723 726 730 730 732 734 735 735 734 731 731 732 733 743 750 749 751 744 727 721 720 715 715 713 711 717 726 735 738 733 733 729 729 746 761 764 765 759 760 769 768 761 757 752 748 747 747 747 748 749 749 748 749 753 757 756 750 747
763 761 761 761 762 763 763 763 764 764 764 767 770 774 777 774 770 769 764 762 762 761 762 763 754 748 750 747 741 734 727 727 730 731 735 738 737 737 735 731 729 729 728 734 741 745 749 744 729 725 724 714 710 712 711 710 716 729 733 727 727 732 733 741 755 764 767 763 764 772 771 765 764 759 751 751 753 753 753 754 754 751 747 751 759 762 758 752
762 761 761 761 761 762 763 764 764 765 765 769 774 778 779 773 767 765 762 761 762 761 764 767 758 749 750 751 746 737 732 735 735 735 739 741 738 736 736 733 730 729 728 729 735 740 746 745 732 725 726 718 710 714 717 713 711 717 720 718 725 737 741 744 752 758 762 767 771 774 774 771 767 761 756 757 759 759 757 756 759 758 752 750 756 762 764 759
762 762 761 761 761 762 764 764 765 767 767 771 776 776 774 771 765 762 761 761 762 763 763 763 757 752 750 750 747 740 736 739 740 739 741 742 739 733 733 734 731 731 729 728 735 740 743 748 740 727 725 723 716 719 727 724 715 712 715 719 723 730 736 741 746 748 752 765 774 775 774 770 763 762 763 762 763 762 759 758 762 764 758 752 754 761 765 763
762 763 762 761 761 763 764 765 766 769 770 774 777 774 770 770 765 759 758 760 759 759 759 758 757 756 750 748 747 743 740 740 742 742 741 742 741 735 733 733 730 730 730 729 735 738 741 748 747 734 727 729 727 725 729 729 723 721 723 727 730 731 732 737 744 747 746 754 767 774 774 767 762 765 766 763 764 764 763 761 762 765 762 756 755 760 764 764
763 764 764 761 762 763 765 767 770 773 773 776 777 774 770 767 763 759 757 756 755 753 753 755 756 755 752 749 748 745 743 742 742 743 742 742 742 736 732 731 730 730 732 734 737 737 741 747 748 745 739 736 732 725 724 724 725 729 733 739 744 738 734 738 747 751 748 749 759 764 764 765 766 766 766 765 765 764 765 764 763 766 766 762 760 762 766 766
764 765 764 762 762 763 766 770 774 775 775 774 772 770 767 763 762 761 757 754 754 752 751 753 754 753 752 751 748 746 746 744 742 743 742 740 741 737 731 730 731 731 733 739 740 736 740 746 748 748 745 740 733 725 724 724 724 728 735 743 747 740 735 737 741 747 749 753 759 758 757 764 768 766 764 765 766 764 766 767 767 769 769 766 766 767 768 768
765 765 764 763 764 764 767 772 775 775 773 770 768 766 765 763 762 761 758 757 756 754 754 755 754 753 751 750 748 748 748 745 742 744 743 741 739 736 732 730 732 732 732 739 741 736 741 750 750 746 742 737 732 726 724 724 723 728 736 743 745 744 744 739 735 737 742 749 755 755 760 768 768 766 765 766 766 767 769 771 772 774 775 772 770 770 770 769
767 767 765 765 765 766 769 773 774 773 772 770 769 767 764 763 762 762 762 760 758 757 757 756 755 754 753 751 750 750 749 746 744 744 744 744 740 735 732 731 732 733 734 737 738 738 746 754 752 751 751 746 742 738 731 726 728 734 742 747 747 747 747 741 737 736 740 747 747 747 761 771 768 767 767 766 768 771 774 776 777 779 782 781 777 775 774 773
768 768 767 766 766 767 770 772 772 773 773 772 772 770 767 765 762 762 763 762 760 758 758 758 755 755 755 753 751 751 748 746 746 745 745 745 741 736 735 733 732 734 735 735 735 737 746 753 751 752 757 756 754 752 745 738 739 740 743 748 748 749 748 743 739 736 739 748 748 747 761 772 770 768 768 768 772 775 779 781 782 785 789 788 786 784 781 779
766 767 769 768 768 768 769 771 771 771 772 773 772 771 771 768 764 762 761 761 761 759 759 759 757 756 757 755 753 752 750 748 748 748 748 748 745 741 739 738 736 735 735 735 737 738 745 754 754 751 753 755 756 755 750 748 747 746 746 748 750 753 753 747 740 738 741 747 752 757 764 767 769 770 769 771 775 778 781 784 787 791 793 792 793 791 788 785
765 767 769 769 770 771 771 770 770 770 771 772 772 771 772 772 769 765 762 762 762 761 760 761 761 761 761 759 757 756 755 752 750 751 753 752 749 745 742 741 739 737 736 737 739 740 746 755 761 758 755 757 758 755 751 751 754 756 755 752 752 753 750 746 746 751 751 746 750 762 764 762 768 771 769 772 777 780 783 786 790 795 795 794 795 795 793 790
766 768 769 769 770 772 771 770 770 770 771 771 772 773 772 773 773 770 766 764 763 762 762 763 764 765 764 763 760 759 759 755 753 755 756 755 754 750 748 748 746 742 741 741 742 744 750 759 766 763 759 760 759 755 753 756 760 765 764 760 758 754 749 750 757 762 758 745 746 760 765 764 768 771 770 773 777 782 786 789 793 795 796 796 796 796 796 795
767 768 770 769 769 771 772 772 771 770 771 772 772 772 773 773 773 771 769 767 765 765 765 766 767 766 765 763 761 762 762 758 757 760 759 759 761 758 757 759 755 748 744 744 747 749 753 763 769 766 762 764 763 758 758 759 760 764 769 769 767 760 753 756 762 762 757 753 754 762 766 769 771 773 776 778 781 786 790 792 795 796 797 798 798 798 799 798
767 768 770 770 770 772 773 772 772 770 773 775 773 772 773 773 773 771 769 768 768 767 766 767 768 766 765 765 762 762 762 760 760 762 760 762 764 761 760 760 755 750 747 748 751 751 753 761 768 767 764 766 767 763 761 762 761 762 766 769 768 762 755 756 760 761 759 761 764 766 770 777 780 779 781 784 786 790 793 796 798 798 798 799 799 801 801 800
768 769 770 769 772 776 774 773 776 774 774 778 776 773 772 771 772 773 769 766 767 767 766 767 768 766 765 764 762 761 760 759 759 758 758 762 762 759 759 757 754 753 752 750 752 752 753 761 767 766 764 767 771 769 765 763 762 760 766 774 777 773 767 764 764 763 762 763 767 769 774 783 787 784 785 789 791 794 798 801 803 802 801 801 802 804 804 804
769 769 770 769 773 780 779 777 780 778 776 778 777 774 772 770 771 773 770 765 764 765 766 767 768 767 763 761 760 758 757 756 754 754 756 759 758 756 756 754 753 754 754 753 755 756 756 760 765 765 765 769 776 777 771 765 762 765 775 786 789 784 778 773 769 767 765 763 766 769 775 784 788 785 788 794 798 800 802 804 807 807 805 804 805 807 808 808
Wind_Speed
12 12 12 13 13 13 13 13 13 13 13 14 14 14 14 14 14 14 14 13 13 14 14 14 14 15 15 15 16 16 20 22 24 16 10 13 13 9 9 5 7 17 15 10 6 5 6 4 5 6 6 4 2 1 3 3 2 2 3 2 3 4 5 5 5 5 4 6 7 10 8 8 11 6 3 5 8 6 7 6 4 6 7 10 17 25 27 27
12 12 13 13 13 13 13 14 14 14 13 14 14 14 14 14 14 14 14 14 13 14 13 14 14 14 15 15 15 17 21 22 21 16 12 10 10 7 8 7 9 17 16 11 10 7 7 4 5 6 4 2 1 2 2 3 3 3 3 2 5 5 5 4 4 4 4 7 10 12 6 6 9 5 2 2 4 4 7 5 5 8 10 13 18 24 24 27
12 12 12 12 13 13 13 14 14 14 14 14 13 14 14 14 14 14 14 14 13 13 13 14 14 14 14 14 14 16 20 17 11 9 6 10 10 6 10 15 10 13 12 8 11 12 8 6 9 6 3 1 1 2 2 2 4 3 3 3 6 5 6 5 5 7 7 9 10 11 6 7 9 4 1 3 3 2 4 4 5 8 12 14 15 18 21 24
12 12 12 12 12 12 13 13 13 13 13 14 14 13 13 14 14 13 14 13 13 13 13 13 13 14 13 13 14 14 14 8 4 4 4 9 12 7 12 19 11 11 9 4 6 12 7 6 9 4 3 1 2 1 2 3 3 2 4 6 6 3 6 7 5 8 9 10 7 8 8 9 9 2 2 5 5 2 4 7 9 14 17 17 14 15 19 19
12 12 12 12 12 12 13 13 13 13 13 13 13 14 13 13 13 13 13 13 13 12 12 13 12 13 12 12 11 11 8 3 3 4 4 9 13 7 13 19 13 11 10 5 6 10 7 4 6 3 2 2 2 1 3 4 2 1 4 8 6 3 7 7 5 8 9 8 8 7 7 7 5 1 4 7 5 4 6 7 8 16 20 19 16 15 16 16
13 13 13 13 13 13 13 13 13 13 14 14 13 14 13 13 13 13 13 13 13 12 12 12 12 13 11 10 7 5 2 1 7 7 9 12 11 4 13 19 14 12 10 8 8 9 6 3 4 3 2 1 3 4 4 3 3 2 5 6 6 5 7 7 6 9 8 7 10 8 6 5 3 2 4 7 6 5 1 4 6 10 15 17 16 16 17 17
13 14 13 14 14 13 13 13 14 14 14 14 14 14 13 13 13 13 12 12 12 12 12 12 12 12 10 8 3 2 2 6 13 10 13 12 6 2 15 19 14 14 12 10 9 7 5 5 4 3 4 1 3 4 4 3 3 4 5 6 6 7 8 8 8 10 9 8 12 9 7 7 7 5 2 6 8 1 6 9 11 10 12 14 14 16 16 16
13 14 14 14 14 14 14 14 14 14 14 14 14 14 13 14 13 13 13 12 12 12 12 11 11 10 9 7 1 2 1 9 12 11 13 10 3 4 17 20 15 15 14 12 10 7 6 6 5 3 3 3 3 3 4 3 1 5 7 6 5 6 8 9 8 9 10 9 9 9 9 11 11 4 4 7 7 4 10 12 13 12 13 13 13 15 13 12
14 14 14 14 14 14 14 14 14 14 15 15 15 15 14 14 14 13 13 13 12 12 12 11 10 7 6 4 2 3 5 6 8 10 8 5 3 7 16 17 16 16 12 12 11 9 6 5 6 4 4 4 3 3 3 1 3 6 7 6 5 7 8 8 7 8 9 6 4 6 10 13 8 2 2 4 1 6 11 13 14 13 14 14 13 13 13 13
14 14 14 15 15 15 15 15 15 15 15 15 15 15 15 15 14 13 13 13 12 12 11 9 9 6 4 2 3 1 6 5 7 7 3 1 3 9 14 12 16 18 11 9 11 11 7 6 7 4 3 2 3 4 3 4 4 5 5 6 6 8 8 7 7 9 8 5 5 6 11 14 5 1 4 2 5 9 12 13 12 13 15 16 13 12 13 13
14 14 15 15 15 15 15 16 16 15 15 16 16 15 15 15 14 14 13 13 12 11 10 8 7 4 2 1 3 4 6 4 3 7 8 3 0 6 11 11 15 18 13 7 12 16 11 8 6 3 1 1 2 4 4 5 3 4 4 6 7 7 7 6 7 8 4 4 7 8 10 12 4 1 7 5 9 10 14 13 12 14 13 14 14 12 9 7
14 15 15 15 15 16 16 16 16 16 16 16 16 17 16 15 15 14 14 13 11 9 8 7 5 1 2 1 5 11 6 1 1 2 5 7 8 8 9 11 13 17 16 9 12 20 16 8 5 3 2 1 1 3 4 3 2 4 2 4 8 7 7 6 6 7 4 4 6 6 5 10 4 6 8 6 10 10 13 13 12 13 12 12 12 9 5 6
15 15 15 15 16 16 17 17 17 17 17 17 18 18 17 17 17 16 15 13 9 8 7 5 3 1 1 2 9 14 12 9 11 13 16 16 16 15 12 13 13 15 18 13 12 18 18 10 6 4 2 1 1 3 4 5 3 3 1 1 5 7 7 6 4 4 4 4 4 6 3 7 7 10 7 4 11 11 11 12 11 11 10 10 9 6 6 8
15 16 16 16 16 17 17 18 18 18 18 18 19 19 19 18 18 17 15 11 7 6 4 1 0 1 1 6 14 17 16 15 18 21 20 17 16 14 13 13 14 16 19 18 14 11 16 14 5 2 2 1 4 4 5 5 2 3 3 2 2 2 6 7 4 2 2 4 4 7 4 6 9 12 6 6 11 13 11 11 11 10 9 8 8 7 7 8
16 17 17 17 17 17 18 18 18 18 18 19 20 20 21 20 20 18 12 7 4 2 1 2 2 1 1 9 16 14 9 10 15 19 15 15 14 11 13 13 15 17 18 20 16 7 10 12 3 1 3 3 2 3 4 4 3 2 3 4 3 2 5 8 6 3 4 5 4 7 4 5 8 12 6 7 11 14 13 11 12 11 10 9 8 7 8 10
17 18 18 17 17 17 17 18 18 18 19 20 21 22 22 21 19 12 6 4 2 2 3 2 2 2 1 7 9 7 7 8 11 10 10 16 18 14 12 10 11 14 15 18 17 10 6 6 3 3 3 3 2 2 2 4 5 3 1 4 4 3 4 6 5 4 5 4 1 3 5 3 6 9 4 7 11 12 12 12 12 11 10 10 7 8 10 11
18 18 17 17 17 17 17 18 19 19 20 21 23 23 22 19 12 4 3 3 1 3 5 2 1 2 4 8 8 7 6 6 6 4 7 17 21 18 10 4 5 9 10 11 10 7 3 2 2 2 2 2 2 3 0 4 5 3 3 2 4 3 4 4 5 5 1 2 3 2 4 5 8 9 3 7 12 11 11 11 11 10 10 9 8 9 10 10
18 19 18 18 18 18 18 18 19 20 21 23 24 22 17 10 4 4 8 8 6 5 2 1 1 1 4 6 5 6 4 3 5 6 6 14 20 21 13 5 3 4 3 4 3 3 2 1 1 1 2 1 3 4 3 5 3 1 1 1 3 3 4 5 4 5 5 2 4 4 4 7 11 11 4 6 11 11 11 10 10 10 11 9 9 10 9 9
18 19 19 19 19 19 19 19 19 20 22 24 23 15 6 5 7 7 8 8 5 3 1 2 4 2 4 6 5 7 10 12 12 9 8 14 17 17 13 7 2 5 3 1 2 3 3 1 1 2 3 3 4 5 6 6 4 3 3 3 3 4 5 7 5 4 6 6 6 6 6 9 11 12 7 6 10 11 9 7 9 10 10 9 9 10 9 9
18 19 20 20 20 20 20 20 20 21 21 23 21 10 3 4 4 3 2 3 5 5 5 5 8 5 9 11 6 6 12 11 8 5 5 13 15 10 6 4 1 2 3 3 3 2 3 3 5 5 5 5 6 7 6 4 1 1 3 2 5 5 7 9 5 4 5 5 7 7 7 9 11 13 11 5 9 11 8 9 10 11 10 10 11 11 10 10
19 19 20 20 20 20 20 21 21 21 19 16 14 6 1 2 3 3 3 4 10 12 11 10 12 12 15 15 8 5 8 6 5 6 7 9 14 9 3 3 3 3 3 4 3 1 2 6 7 5 7 6 6 6 5 3 1 1 3 5 6 5 8 9 5 7 5 2 5 7 6 10 12 13 12 4 10 11 10 12 13 12 11 11 12 12 11 9
19 19 20 20 19 20 20 21 22 18 12 8 7 2 1 2 4 6 3 5 10 13 14 15 13 14 20 22 18 7 3 5 8 10 7 6 10 7 4 5 5 5 2 2 1 2 2 6 7 5 7 5 3 3 4 3 3 3 2 3 5 4 5 7 5 5 3 2 4 8 5 10 14 13 12 6 9 10 12 16 16 15 14 13 14 13 12 11
19 20 21 19 19 20 20 22 19 9 4 8 6 3 3 8 12 11 2 3 10 8 10 13 11 11 16 17 15 8 3 6 7 9 5 8 6 6 5 6 7 5 3 4 5 4 4 6 7 6 6 5 3 3 3 2 2 3 3 3 5 3 2 5 4 4 4 1 5 8 5 8 11 9 10 7 6 7 11 16 15 15 17 18 18 15 15 16
19 20 20 20 20 20 21 21 9 1 7 14 9 5 9 14 16 10 1 2 7 4 6 12 10 9 13 9 9 13 6 6 6 8 8 10 5 4 6 6 6 5 4 7 8 6 9 8 4 6 6 6 5 5 4 4 3 4 5 6 6 4 5 7 5 5 6 4 4 4 5 6 6 7 8 5 4 7 9 12 11 11 13 15 15 13 13 15
19 20 20 20 20 20 22 15 1 2 15 12 5 9 14 15 16 6 1 2 5 5 5 7 5 6 10 5 11 13 4 4 7 8 8 12 8 4 4 3 4 6 6 7 7 6 11 7 5 6 5 6 6 6 5 6 4 4 6 10 10 8 9 10 7 4 5 5 4 1 4 5 6 6 8 5 4 7 8 11 12 11 12 12 12 11 10 10
19 19 19 18 19 22 18 5 2 12 14 4 4 13 12 14 15 3 3 4 3 5 3 2 2 5 8 6 8 8 4 4 10 12 9 12 14 6 3 2 1 5 6 5 4 3 6 4 5 6 6 6 6 6 5 8 4 5 6 10 12 11 10 11 8 2 1 4 4 3 3 4 7 6 7 5 4 6 6 11 14 13 13 13 12 11 10 11
19 18 18 17 18 19 11 4 11 14 5 1 10 13 10 14 11 3 3 5 4 5 1 0 1 5 6 7 10 8 3 3 4 11 12 13 12 5 5 4 2 4 4 3 1 3 4 4 4 6 5 6 5 6 6 10 6 5 5 9 10 10 10 10 7 5 4 4 3 3 4 2 6 6 6 5 7 6 5 10 12 12 13 13 11 11 12 13
18 17 17 17 16 14 8 10 13 8 1 6 12 11 11 13 6 3 4 3 4 3 1 1 1 5 3 6 12 6 3 2 3 5 11 15 11 4 5 7 6 7 5 6 4 4 3 5 7 7 5 5 6 7 8 11 6 9 7 9 8 8 9 7 6 5 3 2 4 5 2 1 5 6 5 5 7 6 4 9 10 12 14 13 12 12 12 12
18 17 16 17 16 12 7 9 9 6 6 11 12 11 12 9 3 4 4 1 3 2 0 1 1 1 2 4 9 6 3 2 1 2 5 11 11 5 4 7 8 8 5 6 7 5 2 6 7 7 5 5 8 9 8 12 8 9 4 5 4 3 4 4 5 4 1 0 6 7 2 2 5 5 5 5 5 2 2 5 8 12 13 13 12 12 12 10
18 18 17 16 15 10 5 9 11 6 7 10 11 12 9 4 3 4 1 2 3 3 2 2 4 5 4 2 5 7 4 3 2 3 4 3 6 3 1 2 5 3 2 2 5 6 3 3 4 4 5 6 8 8 8 15 13 4 3 3 3 1 2 1 2 3 2 2 8 8 6 5 3 5 2 2 2 3 5 4 6 10 11 12 11 11 12 9
19 19 18 15 13 8 4 6 6 3 7 10 11 10 5 3 4 4 2 4 3 4 5 5 6 8 6 3 5 5 4 3 2 4 3 2 3 3 1 2 2 2 1 4 4 5 6 3 3 4 6 6 6 6 4 10 11 3 3 2 2 3 3 3 4 3 2 5 8 7 5 7 4 5 3 2 3 5 8 9 11 15 14 12 10 9 11 10
20 19 17 14 11 9 8 5 2 4 7 8 8 6 4 3 1 2 3 4 2 3 4 5 8 10 10 6 5 5 3 2 1 3 4 3 4 6 4 3 4 2 2 5 3 5 5 5 4 3 5 6 5 5 3 1 4 5 3 4 3 2 2 1 3 1 2 6 6 3 3 5 5 4 5 8 6 5 9 9 8 13 15 13 11 10 10 10
19 17 14 10 9 11 9 5 4 5 4 4 4 4 6 4 2 4 3 3 1 3 4 4 10 12 9 6 3 4 4 2 1 2 3 3 4 6 6 4 5 4 3 4 2 2 4 5 4 2 4 4 7 4 3 1 3 6 5 5 5 2 1 1 4 2 3 6 4 3 1 2 4 3 6 10 8 4 5 3 1 2 7 9 10 10 9 9
17 13 9 6 7 9 6 3 3 2 2 2 3 5 5 2 3 3 2 3 3 4 5 6 11 12 6 3 3 2 2 1 1 2 2 3 4 4 4 3 4 4 2 2 2 3 2 4 3 5 3 2 5 7 7 5 5 5 5 5 5 4 4 3 3 3 4 4 3 4 1 1 2 3 5 6 5 5 5 6 7 6 3 3 7 9 9 7
13 10 8 6 6 5 2 5 4 1 2 3 5 5 3 3 3 1 2 4 2 4 8 9 7 5 5 4 5 3 2 0 1 2 2 2 5 4 4 5 5 4 4 2 2 2 3 5 7 5 4 2 3 5 6 6 2 3 2 5 3 4 5 2 3 5 3 1 2 3 1 2 3 4 5 5 5 8 9 8 11 11 8 4 2 6 8 7
12 9 5 3 2 1 6 9 7 3 3 5 5 2 3 3 2 2 1 3 2 4 9 9 4 2 4 5 5 6 3 1 0 1 1 1 2 2 2 3 4 5 5 4 2 1 1 5 7 4 4 5 6 5 3 4 3 1 2 3 3 4 7 3 2 1 2 1 2 1 1 3 3 3 5 6 7 8 9 8 9 10 10 9 5 4 2 6
14 9 2 2 3 6 8 9 7 4 3 6 4 2 3 3 3 3 1 3 3 4 4 4 3 2 3 3 4 6 4 3 1 0 1 1 2 2 1 1 0 3 4 4 2 2 2 4 6 4 6 8 4 2 3 2 4 4 3 5 2 3 5 3 1 2 3 2 3 1 0 3 1 1 5 5 6 7 8 8 6 6 10 10 7 7 6 4
14 8 2 2 6 11 11 9 6 3 4 5 2 2 2 2 2 3 3 3 3 2 1 1 2 2 2 3 4 6 4 3 2 1 0 1 1 1 0 1 2 3 2 1 1 2 1 3 7 4 5 8 4 2 3 5 1 4 4 3 3 3 0 1 2 1 1 2 2 3 2 2 2 3 3 5 5 6 7 8 7 4 7 10 8 6 6 4
9 3 2 2 7 13 12 10 5 4 5 4 1 2 2 2 4 4 4 3 2 1 1 3 3 1 2 3 3 4 4 2 1 1 0 0 1 2 2 1 0 3 4 4 3 1 1 0 6 5 3 5 5 3 1 5 5 2 2 0 1 3 3 2 2 3 3 3 1 1 2 2 4 3 2 2 4 5 6 6 6 5 3 9 9 5 1 1
3 2 1 1 8 15 13 8 4 5 3 1 2 3 2 2 4 6 5 3 2 2 2 2 2 2 3 3 2 3 3 1 0 1 1 1 1 2 2 2 1 1 2 5 3 0 3 2 3 6 6 5 3 0 4 4 1 2 1 1 2 1 3 2 1 2 3 4 3 2 0 4 4 1 1 0 4 6 6 6 5 5 2 6 8 6 2 1
2 3 1 1 10 17 11 5 3 2 2 0 2 2 2 2 3 5 5 3 3 2 2 2 2 2 2 3 3 3 3 2 1 1 1 1 1 1 2 4 3 1 1 4 2 0 1 1 2 4 5 4 5 4 3 5 6 5 3 2 1 2 3 2 2 1 2 4 4 5 2 5 4 1 2 3 6 7 7 7 6 5 3 5 6 4 2 1
3 3 1 4 14 17 9 4 1 1 2 1 2 3 3 3 2 3 4 3 2 1 1 1 2 2 2 2 2 3 3 2 2 1 1 1 2 3 3 2 3 2 3 1 1 2 2 3 1 3 3 4 8 6 3 1 8 8 3 2 1 2 3 4 4 3 1 3 2 4 2 4 4 1 3 5 6 7 8 7 6 5 4 5 7 5 3 3
3 1 1 8 17 13 6 3 3 2 1 3 2 3 3 2 1 2 3 2 1 1 1 1 1 1 1 2 2 3 2 1 3 3 1 2 1 4 3 3 2 2 3 1 2 0 2 2 0 4 4 4 6 6 5 3 4 7 3 3 3 1 1 4 5 3 3 3 2 3 1 3 2 2 4 6 7 9 8 7 7 7 6 6 8 6 5 5
2 1 0 8 11 4 3 1 2 2 3 3 3 3 3 1 1 2 3 3 3 1 1 1 2 1 1 2 1 2 2 1 3 4 1 2 3 3 4 5 2 2 2 1 2 1 1 0 1 1 3 4 4 4 5 5 3 4 2 3 3 4 3 2 1 3 2 3 4 5 2 4 0 3 4 7 10 11 9 8 9 9 8 8 8 7 7 7
2 0 1 1 2 0 1 3 3 2 3 2 3 4 4 2 2 2 1 2 4 1 1 2 3 1 2 2 2 3 2 1 1 3 2 3 4 4 7 7 4 3 2 1 2 3 2 1 3 3 2 3 3 3 4 3 2 2 2 4 6 7 5 2 2 4 1 3 4 5 3 3 2 5 6 7 9 10 10 10 10 10 8 8 8 8 8 8
2 1 1 3 3 2 1 1 4 3 2 1 2 3 3 2 4 4 1 2 4 3 2 2 3 2 2 4 4 4 4 2 1 2 3 4 3 3 6 7 5 5 5 7 7 3 3 2 2 4 4 5 5 4 4 1 2 2 1 4 6 6 3 2 4 2 3 3 3 1 5 6 6 6 6 7 9 10 10 10 10 8 7 8 8 7 8 8
2 1 2 1 2 2 1 2 3 2 1 2 2 2 2 2 4 4 2 2 3 4 3 2 4 4 3 3 2 2 4 4 3 4 3 4 2 3 6 7 7 7 6 6 6 3 4 3 4 2 2 2 2 2 4 4 4 4 3 4 6 6 6 7 3 2 1 4 2 3 6 9 8 8 7 7 9 9 9 9 8 7 7 8 8 8 9 10
2 1 2 3 1 1 0 1 2 3 2 2 2 1 2 3 3 2 3 3 3 3 2 3 6 5 4 3 2 1 4 4 3 3 3 4 4 4 7 8 7 7 5 4 4 3 5 2 3 3 3 4 5 5 6 5 4 5 6 6 7 7 8 8 1 4 0 2 4 7 9 7 6 7 6 7 10 10 10 9 8 7 8 8 9 10 10 10
2 1 1 1 1 3 3 1 3 4 4 2 1 1 1 2 3 3 2 2 4 4 2 2 5 6 6 3 3 2 2 1 1 3 1 4 5 3 4 5 7 6 3 3 3 2 4 2 1 1 2 6 7 6 6 6 4 5 7 8 8 6 6 7 3 1 4 3 4 10 10 4 4 6 6 9 11 10 10 9 8 9 9 8 9 10 10 9
1 1 1 2 3 0 1 1 3 4 3 3 2 2 1 1 2 4 2 1 1 4 1 2 4 6 4 2 3 2 2 4 3 4 1 3 4 2 1 2 4 4 4 3 2 2 2 2 1 0 2 4 6 6 6 5 6 6 8 11 12 10 6 6 5 4 6 6 7 11 9 5 4 6 10 11 10 10 10 8 7 8 8 9 11 10 8 8
0 2 2 3 3 3 3 2 3 4 3 3 1 2 2 1 2 3 3 2 4 2 1 0 4 5 2 2 2 2 6 5 6 8 5 2 2 2 2 3 2 4 4 1 1 3 3 2 1 3 2 1 4 5 5 4 5 7 9 11 12 9 5 4 3 2 3 7 10 9 6 3 3 6 10 11 10 11 10 8 6 6 8 10 11 10 9 7
3 1 2 4 2 3 3 2 3 3 1 2 2 2 2 4 3 2 2 3 2 3 3 2 3 3 3 4 4 6 7 6 8 8 5 5 6 5 5 7 7 4 2 1 1 1 3 3 2 2 2 1 3 3 3 3 3 3 5 7 6 5 4 5 4 4 2 5 8 5 4 5 6 8 11 10 9 9 8 6 4 4 7 10 10 10 9 7
Wind_Direction
347 347 344 344 343 343 342 340 340 338 338 336 335 335 334 334 332 329 325 320 320 318 318 319 318 319 320 322 323 323 320 316 313 305 268 281 297 270 244 267 206 178 168 165 157 128 126 150 180 164 145 143 165 178 171 169 135 90 108 151 218 231 228 192 196 205 233 283 309 321 354 5 327 328 336 27 50 66 69 31 25 38 52 106 116 126 135 139
347 345 344 344 342 342 341 339 338 336 336 334 335 335 333 334 331 331 327 322 320 318 320 318 317 319 319 322 323 324 321 315 308 285 270 311 327 280 215 182 170 173 182 203 212 178 144 176 182 151 128 130 231 162 173 190 150 156 135 169 227 221 228 197 210 252 281 290 303 307 331 1 318 305 333 50 48 43 77 40 40 77 89 107 120 128 134 139
345 344 343 342 341 341 340 337 335 334 334 333 332 332 332 332 330 330 328 325 322 320 320 317 318 318 319 323 323 325 320 317 307 271 304 0 347 303 189 175 169 166 179 205 206 187 166 176 168 136 103 143 256 152 191 222 174 185 148 210 240 222 255 258 250 269 278 279 293 297 316 342 302 282 47 123 93 44 131 139 108 122 132 131 133 131 135 142
344 343 341 340 340 340 337 334 333 332 331 330 330 330 329 328 328 328 326 327 323 321 319 318 318 315 320 324 324 326 322 320 296 264 356 2 346 333 179 177 175 161 158 145 178 183 165 146 158 134 99 184 296 146 195 228 199 179 164 219 241 215 264 268 250 260 268 271 278 290 313 317 293 291 135 140 103 338 233 203 168 154 151 143 141 139 141 146
344 341 341 340 339 338 335 334 331 330 328 327 328 327 327 326 325 324 326 328 325 322 319 317 317 317 323 327 332 333 331 356 297 286 332 335 338 335 175 174 174 162 152 142 154 167 161 130 143 111 90 181 272 164 225 229 179 197 215 233 244 226 263 275 271 265 268 283 291 292 300 291 293 5 172 153 145 229 230 220 183 159 156 149 145 143 145 153
344 343 342 339 339 337 334 333 330 328 326 325 325 324 325 323 322 322 324 327 327 326 322 321 320 321 330 338 343 344 359 292 292 299 316 318 326 315 172 171 171 159 159 166 155 152 159 120 118 134 123 169 219 202 254 252 162 230 260 247 240 226 248 278 289 278 279 295 291 282 291 300 323 300 223 179 195 228 153 114 133 150 153 145 142 147 155 163
345 344 342 340 339 336 334 333 330 328 326 324 322 321 320 320 321 321 321 324 325 327 325 323 322 324 338 349 345 27 96 257 280 299 318 317 315 248 171 172 169 164 171 171 158 152 153 127 133 154 126 161 219 209 258 270 173 205 263 271 257 240 242 263 266 275 282 275 274 282 315 306 271 269 235 219 238 181 91 101 114 132 142 139 144 155 162 161
345 343 341 340 337 335 334 332 330 328 326 324 321 320 319 318 318 318 319 320 322 326 324 322 324 330 343 348 2 5 264 252 284 305 308 301 283 179 170 175 172 172 180 182 175 157 143 140 168 163 128 208 206 217 259 299 262 215 244 269 271 260 252 262 269 277 280 269 274 292 298 275 255 231 161 240 270 110 113 113 120 133 139 147 156 160 160 156
344 342 340 337 334 333 330 329 329 327 325 324 322 321 318 318 318 318 318 318 321 323 321 322 321 335 351 344 53 345 269 250 307 315 301 275 242 177 171 177 180 181 185 194 185 158 158 170 192 179 155 211 217 247 248 162 259 219 225 256 264 273 270 271 277 268 270 268 264 282 279 270 261 179 185 260 348 117 118 118 130 139 146 158 163 163 163 164
342 341 339 335 333 330 328 328 328 326 325 323 322 321 319 319 318 316 315 315 320 319 318 320 316 332 339 310 77 343 269 286 328 341 1 186 191 175 176 184 188 189 185 192 188 175 177 179 187 175 149 218 224 243 215 167 231 232 233 267 259 267 273 266 270 265 272 281 239 239 265 271 277 120 262 266 125 132 119 124 142 144 155 165 167 172 172 173
341 339 336 333 331 328 328 327 326 327 324 321 321 319 317 316 314 314 314 312 318 318 316 315 312 327 316 317 121 236 266 308 4 56 53 39 147 196 202 204 197 194 187 182 200 199 192 175 162 129 142 243 249 266 241 193 249 272 271 302 286 281 281 255 263 268 270 278 229 208 253 275 298 204 239 194 145 141 131 139 152 153 164 168 172 178 172 162
339 336 334 332 329 327 327 325 325 324 321 320 318 316 314 312 314 317 314 313 318 316 312 312 313 317 335 351 212 241 253 187 192 42 350 316 305 284 253 232 216 208 200 188 212 211 199 173 137 131 215 235 334 303 257 236 288 278 274 311 299 317 305 255 247 246 205 246 224 171 265 289 285 244 240 175 147 142 139 148 156 161 170 173 178 170 134 98
337 336 334 331 329 328 327 325 324 322 320 319 317 317 315 312 318 319 314 311 308 308 304 300 307 281 332 274 238 258 269 257 266 276 277 283 287 281 266 248 241 232 220 213 224 218 202 183 152 181 237 49 276 269 284 307 321 285 283 290 306 334 306 265 250 249 210 239 198 141 257 281 265 259 256 174 148 137 141 157 161 166 173 176 174 148 114 108
337 336 333 330 330 328 326 325 323 322 320 318 318 316 313 316 318 314 308 298 287 296 291 260 220 118 171 255 268 282 284 274 269 263 258 260 265 267 261 250 245 240 231 229 241 232 204 198 182 216 283 214 246 294 323 328 349 321 303 289 319 300 280 292 300 299 276 267 144 142 233 257 263 268 250 180 156 147 154 166 165 171 177 171 160 136 118 124
338 336 333 331 329 327 326 324 322 321 319 317 316 314 315 317 314 307 296 274 270 275 222 139 170 168 330 278 282 290 282 270 264 255 243 230 231 246 250 238 237 239 234 232 241 244 192 186 186 273 264 238 235 315 325 332 351 1 287 285 316 212 269 307 294 225 235 278 110 141 232 264 262 267 240 178 166 160 162 166 170 175 171 161 150 126 124 136
339 336 333 331 328 327 326 324 323 321 320 318 315 317 320 318 311 302 275 228 228 201 161 120 172 165 309 282 296 302 263 246 256 256 225 209 207 218 231 222 232 235 232 235 242 247 195 159 179 209 240 259 179 195 314 336 325 354 230 256 286 273 296 321 305 252 218 257 344 169 225 269 267 270 244 174 178 170 165 169 171 170 166 160 143 126 137 144
340 336 333 331 329 329 327 326 325 323 323 321 320 323 326 324 313 272 177 146 129 151 143 106 120 159 253 274 297 301 269 230 242 262 213 202 202 211 214 184 222 225 222 238 247 252 228 156 232 229 257 264 154 134 9 279 273 320 358 268 262 260 279 305 304 304 317 193 272 260 225 251 264 274 271 178 187 176 171 174 165 164 167 155 134 137 148 150
339 337 335 333 332 331 330 330 327 326 327 323 325 329 330 344 13 131 133 119 99 105 127 2 73 159 259 266 279 294 313 321 303 302 231 200 200 208 210 195 194 158 170 244 239 212 217 231 239 288 298 233 123 117 177 228 203 194 303 280 281 280 262 270 272 300 354 10 275 306 286 269 270 272 260 187 191 185 183 171 154 163 163 144 136 148 152 154
339 339 338 335 336 335 334 333 330 330 330 325 330 338 345 49 72 97 118 124 109 102 206 212 177 191 271 260 260 291 309 313 307 295 227 199 199 209 217 220 176 124 133 260 241 200 193 244 285 243 246 210 186 172 190 205 148 157 199 182 251 291 276 266 254 269 336 342 294 288 278 275 277 276 264 190 186 196 186 143 144 163 154 139 144 152 153 157
339 340 339 338 338 337 337 334 332 333 331 327 333 351 39 41 42 52 85 176 206 221 232 201 193 237 284 281 291 323 314 303 289 281 220 192 182 185 214 226 173 128 150 164 222 228 147 200 242 224 203 178 195 201 197 208 112 329 280 257 258 274 275 276 274 280 321 327 284 277 275 276 276 275 270 193 171 197 172 130 159 167 149 150 152 154 158 159
339 340 339 339 338 337 335 332 333 334 328 324 336 3 76 8 1 317 303 252 234 226 240 231 207 232 256 261 276 351 348 311 269 289 276 200 159 147 200 202 172 222 215 172 212 306 125 211 238 209 182 181 197 200 191 218 299 275 268 289 284 265 270 278 279 279 286 243 266 286 293 283 272 270 272 186 155 192 174 151 173 166 151 157 152 152 158 155
339 340 338 337 337 336 333 333 334 329 325 336 351 24 204 319 334 306 292 292 263 220 226 237 222 241 252 252 257 271 349 297 288 297 278 180 152 158 193 176 173 216 226 135 193 282 232 238 242 208 181 186 214 194 174 208 233 227 235 281 275 275 294 290 279 281 283 146 273 293 293 277 274 273 272 228 174 194 181 169 174 162 153 158 157 158 159 154
338 338 337 337 336 334 333 334 332 324 347 346 322 264 297 335 339 324 280 294 284 220 206 228 218 234 248 252 244 211 206 236 257 284 236 155 163 174 165 173 183 193 167 165 193 208 238 251 235 208 170 164 249 252 189 225 250 219 202 227 259 281 322 284 292 328 322 275 263 288 298 277 284 294 283 255 181 175 183 180 173 160 159 163 165 166 161 159
336 336 336 335 334 333 333 335 330 195 337 324 294 300 338 341 344 340 187 243 287 254 210 219 204 215 241 249 189 170 201 209 194 252 216 159 153 150 163 177 165 177 194 187 188 202 238 246 188 160 158 170 228 252 214 225 260 235 207 216 246 259 240 244 274 322 322 303 236 275 325 293 298 312 294 303 111 147 176 172 157 152 159 162 164 166 166 166
333 334 333 334 335 332 333 335 223 283 324 315 293 338 345 341 345 347 171 341 291 282 263 224 196 217 229 197 164 166 184 219 201 222 193 166 168 146 174 179 145 194 208 183 181 214 244 242 133 143 173 173 208 244 215 195 233 268 225 213 221 233 241 248 270 311 343 320 247 119 16 295 301 307 286 315 94 150 169 155 148 151 158 161 166 167 169 172
331 331 332 333 333 333 337 339 288 324 323 311 348 344 338 336 347 14 136 25 305 282 297 222 156 204 205 164 160 143 100 249 216 203 193 183 181 155 156 185 144 203 195 169 179 225 240 214 152 179 189 173 201 242 215 171 189 268 236 204 209 218 233 248 254 228 193 272 261 90 96 266 304 314 294 328 80 133 160 155 153 156 163 170 170 164 165 171
329 328 331 330 332 341 344 300 314 325 318 321 340 340 333 334 350 89 102 24 301 270 224 201 98 183 196 168 158 138 143 260 192 195 200 185 177 152 169 188 153 201 178 131 221 245 205 180 180 193 180 178 208 242 209 157 156 251 217 176 195 211 221 237 230 199 221 258 304 31 120 216 294 285 292 353 66 88 133 158 158 161 167 170 166 163 169 172
327 327 328 325 329 337 315 288 307 313 270 328 333 334 329 332 349 110 79 37 280 271 175 291 193 181 195 165 168 176 214 150 104 214 198 177 175 150 184 195 177 198 176 137 212 253 178 180 202 194 180 192 215 229 192 150 172 251 215 170 192 209 215 221 202 205 244 282 301 310 112 178 275 275 318 13 73 83 142 169 169 170 170 167 164 166 171 175
327 326 324 321 324 326 299 270 274 275 306 325 333 331 325 327 4 82 75 65 275 301 270 326 324 252 29 146 193 244 295 110 120 214 157 174 189 162 189 200 179 201 198 165 213 246 215 198 189 167 171 207 231 235 179 156 204 254 208 174 204 200 206 203 171 179 212 261 260 265 171 179 272 287 333 21 53 37 213 193 182 177 173 169 166 164 167 173
326 322 321 319 317 319 295 263 266 285 326 327 330 332 330 343 51 70 85 248 276 325 340 17 352 336 10 122 233 265 283 313 357 98 102 168 195 173 185 153 139 174 217 241 241 249 270 219 169 160 189 210 231 237 182 180 208 233 98 172 242 347 29 47 109 117 106 259 257 246 187 166 264 284 278 78 359 270 214 198 194 183 179 178 172 164 164 166
322 320 319 311 302 299 277 264 276 334 341 328 332 339 358 42 63 99 199 254 280 328 347 4 349 342 343 296 255 256 256 294 6 105 122 103 151 183 353 65 104 83 345 297 282 294 309 275 210 219 214 205 227 249 204 193 208 194 93 145 218 316 7 23 360 52 133 246 259 250 181 152 203 265 281 295 298 248 200 186 185 184 181 178 171 166 165 159
319 320 316 302 280 254 243 247 283 322 322 327 340 3 70 63 28 174 245 296 333 336 338 341 332 330 321 298 241 214 200 227 314 118 145 140 156 187 194 183 180 137 276 256 271 314 298 254 249 268 232 194 192 265 296 182 171 157 129 105 121 290 344 355 303 321 209 244 256 262 142 150 210 247 311 325 326 274 222 208 196 189 182 172 165 167 165 157
321 323 316 295 259 245 251 268 281 290 311 335 357 40 83 85 229 225 278 312 312 314 322 325 319 316 312 314 286 217 176 186 240 129 135 130 155 200 215 201 171 159 225 225 206 282 292 295 295 281 269 200 166 205 271 274 154 157 160 143 148 171 104 258 273 272 255 250 264 298 181 219 260 273 329 333 333 303 222 210 335 213 179 162 156 157 157 155
326 328 316 286 267 271 275 260 239 257 343 24 54 62 83 128 230 246 301 271 259 311 332 330 316 315 320 326 305 264 142 43 335 104 99 113 144 211 240 228 184 163 181 185 168 189 217 302 270 200 245 245 178 198 195 173 166 174 169 139 143 156 150 204 230 218 252 254 300 327 270 181 247 271 321 338 356 31 73 85 64 46 38 130 147 147 151 150
333 331 313 290 288 299 211 169 170 136 69 69 68 71 124 196 250 266 256 265 294 328 324 322 311 315 336 329 321 348 90 196 331 66 58 137 164 198 214 219 209 156 131 173 223 181 170 246 255 232 242 256 243 225 167 133 151 220 149 111 140 181 156 154 198 190 206 230 342 338 256 214 227 259 322 8 37 48 58 67 74 65 39 36 127 150 145 139
337 337 313 271 256 123 146 156 152 138 100 78 72 90 183 211 225 168 222 292 318 320 323 328 329 337 337 335 335 343 16 100 257 79 65 214 200 218 200 210 214 171 147 161 209 236 155 255 273 310 306 248 236 239 189 159 188 205 129 159 210 167 132 126 233 226 80 171 278 343 250 304 320 295 331 14 36 46 53 54 74 81 68 52 11 334 123 125
341 348 333 237 183 149 153 160 153 134 82 79 93 181 218 227 205 189 280 316 280 296 344 350 327 322 332 347 324 314 344 17 333 246 215 276 316 290 291 332 211 165 165 158 187 218 205 272 282 309 297 273 245 223 262 233 147 132 179 206 189 90 92 111 175 5 39 218 268 14 230 303 14 281 318 10 33 38 45 37 41 79 88 83 49 2 360 75
336 344 341 277 173 159 158 159 151 107 70 76 90 226 217 229 244 235 280 311 288 300 24 230 270 305 334 338 300 291 326 351 336 11 240 273 296 255 310 329 16 34 10 80 134 221 187 293 292 276 262 289 331 69 314 318 39 146 180 176 119 109 66 94 148 182 115 200 282 350 348 284 186 217 310 15 33 37 45 29 360 10 92 97 83 44 7 35
335 360 7 13 158 165 164 157 135 61 61 72 102 235 223 240 264 262 263 288 296 277 253 227 228 295 315 294 269 291 324 325 326 44 132 216 246 194 152 184 290 26 20 62 118 209 68 355 286 292 281 302 341 51 306 305 333 25 127 107 83 136 160 176 160 165 162 165 226 337 358 284 225 220 268 358 31 40 49 43 360 330 77 106 113 117 106 59
2 79 336 32 153 167 164 141 79 48 72 111 187 215 250 250 258 270 263 246 212 223 244 238 240 284 296 294 292 300 316 330 50 155 200 203 244 237 188 179 224 211 50 58 98 227 24 79 260 301 325 321 318 153 185 194 36 18 99 27 331 97 127 171 153 111 142 151 166 157 270 266 251 250 282 31 71 55 37 44 31 340 8 103 116 118 118 111
59 68 287 198 155 163 150 99 44 61 103 219 213 219 264 252 254 288 281 242 206 232 245 238 258 278 290 320 326 309 319 350 35 169 235 250 200 256 224 181 176 194 54 32 37 196 11 109 222 308 339 322 271 258 207 157 124 118 129 68 276 188 132 149 244 301 109 130 158 156 181 265 268 319 16 71 94 80 46 37 41 14 11 75 87 89 88 60
71 67 284 174 163 160 129 60 306 130 119 238 234 240 275 273 259 288 293 281 232 255 300 254 263 289 279 285 291 305 335 350 337 317 244 237 190 222 259 184 152 153 134 108 259 185 127 107 102 286 278 257 262 285 313 163 113 103 94 49 66 160 111 141 208 247 96 97 129 120 115 268 269 3 60 75 93 85 62 47 45 30 19 69 79 76 71 60
108 49 68 154 164 158 96 30 314 356 257 254 267 264 278 289 300 298 304 333 338 302 356 347 322 351 282 270 294 330 354 6 352 343 265 296 260 237 288 12 30 31 86 123 268 48 79 85 15 287 294 295 285 300 311 289 95 83 38 25 41 322 258 178 183 176 143 147 131 90 83 266 277 55 82 97 100 90 74 62 61 40 9 42 67 64 57 55
134 293 62 154 175 174 62 167 279 321 275 299 343 317 301 290 338 331 314 326 323 312 51 327 322 6 289 297 328 325 328 85 19 358 344 359 332 306 2 26 34 37 63 191 204 111 58 171 122 14 340 341 325 314 311 318 46 85 54 15 15 357 343 278 178 87 117 190 150 128 195 253 281 77 92 101 101 95 83 71 66 51 24 23 37 42 45 46
94 15 327 223 215 39 104 180 168 193 261 329 3 334 335 320 308 329 312 327 329 336 81 313 311 323 311 347 5 321 330 104 67 348 5 358 334 346 11 18 48 76 55 24 83 114 133 143 124 127 174 204 211 228 252 286 3 77 86 33 19 20 11 301 154 105 181 206 124 126 190 216 123 108 103 100 100 94 83 74 67 58 46 36 29 28 37 44
102 98 327 333 358 49 163 197 112 135 228 53 41 330 345 325 312 324 11 36 360 360 25 341 334 7 9 19 19 334 337 7 11 23 25 350 333 340 349 357 30 61 59 39 35 77 114 68 76 126 151 182 200 229 250 248 48 21 6 31 29 21 18 74 110 144 205 167 106 158 177 150 141 140 120 100 97 94 89 84 80 77 73 66 49 31 36 44
99 117 155 165 352 11 325 336 66 106 212 120 90 327 325 318 317 328 348 20 355 353 21 14 12 28 1 358 27 341 329 337 7 31 11 338 328 322 337 357 20 30 44 38 16 45 100 49 13 64 109 159 193 316 347 34 65 37 352 10 26 25 41 64 79 265 222 129 145 217 166 147 153 158 137 111 104 102 96 92 93 95 91 86 77 56 47 45
114 153 161 155 178 197 240 329 113 99 51 95 100 338 336 350 348 325 320 337 349 2 40 8 1 9 332 319 112 55 329 339 8 11 354 352 350 345 357 359 344 341 8 27 13 63 107 71 350 3 27 24 18 18 30 51 71 48 23 11 11 26 56 67 7 274 254 147 190 173 154 147 146 146 129 107 107 103 95 96 101 100 90 87 86 75 61 49
92 93 311 9 132 183 201 197 109 81 41 36 31 346 338 359 342 284 276 344 347 346 74 56 331 332 329 337 100 96 333 27 354 315 346 12 355 8 26 346 305 311 19 47 16 55 97 96 317 298 40 29 13 13 41 58 65 38 19 10 3 14 68 81 51 6 76 96 139 134 125 98 90 112 95 88 99 99 95 97 99 98 96 91 85 77 69 62
99 138 291 33 55 18 266 28 72 72 25 5 352 309 284 357 321 293 280 113 343 315 38 96 302 305 312 350 89 113 208 171 185 248 231 27 355 8 69 250 271 317 14 51 6 9 69 123 192 90 64 31 14 16 30 57 79 52 17 6 2 2 30 56 42 42 66 80 101 110 105 69 51 89 92 90 94 95 94 91 89 97 102 95 87 79 71 67
310 194 149 99 54 347 351 29 65 84 29 1 301 274 308 297 276 295 288 211 181 232 282 295 292 295 304 8 41 235 229 200 205 226 212 191 245 241 241 239 267 332 346 24 19 20 65 122 113 64 69 346 1 11 357 15 67 55 20 1 354 355 0 356 350 10 93 118 120 114 111 119 115 101 96 91 89 91 92 85 77 93 100 93 91 86 74 63
353 298 78 100 84 352 10 38 43 75 67 298 255 243 272 277 286 344 325 285 221 198 211 220 258 288 325 336 312 266 243 228 240 243 201 183 218 226 239 252 256 255 228 150 66 52 97 116 103 78 108 288 333 353 339 356 31 22 355 346 329 319 317 319 337 2 29 126 138 140 136 141 141 120 103 93 88 90 92 88 77 82 94 92 91 91 83 66